Date,TemperatureHighF,TemperatureAvgF,TemperatureLowF,DewpointHighF,DewpointAvgF,DewpointLowF,HumidityHigh,HumidityAvg,HumidityLow,PressureMaxIn,PressureMinIn,WindSpeedMaxMPH,WindSpeedAvgMPH,GustSpeedMaxMPH,PrecipitationSumIn
2013-11-1,36.9,31.7,27.8,24.7,19.3,15.1,86,61,43,30.32,30.02,7,4,16,0.00
2013-11-2,51.7,43.6,32.4,16.8,4.7,-14.5,51,24,6,30.30,29.71,12,6,28,0.00
2013-11-3,49.1,41.8,24.4,23.9,13.2,-7.7,86,35,10,29.70,29.44,12,6,24,0.00
2013-11-4,36.4,27.0,20.8,17.4,11.3,0.4,75,53,24,30.00,29.64,11,4,26,0.00
2013-11-5,27.1,21.1,17.2,17.9,6.2,-6.5,89,54,31,30.38,29.97,10,5,20,0.00
2013-11-6,30.5,25.6,17.3,16.8,11.6,1.3,61,55,48,30.57,30.37,13,9,27,0.00
2013-11-7,49.1,38.1,29.0,19.7,17.8,15.9,60,45,29,30.58,30.00,11,6,24,0.00
2013-11-8,49.9,42.2,37.4,19.3,15.2,9.6,43,33,26,30.01,29.73,20,8,37,0.00
2013-11-9,52.8,41.4,31.9,22.6,18.6,16.1,67,40,28,30.19,29.99,6,3,14,0.00
2013-11-10,54.1,43.9,38.0,19.5,17.1,13.9,45,34,23,30.21,30.12,7,3,15,0.00
2013-11-11,54.1,39.7,23.5,25.0,18.8,12.8,95,49,21,30.52,30.14,9,3,16,0.00
2013-11-12,54.6,38.0,25.0,24.6,18.7,2.2,94,51,17,30.62,30.44,5,1,12,0.00
2013-11-13,50.8,44.2,38.6,18.2,10.0,2.8,43,25,17,30.45,29.95,7,4,16,0.00
2013-11-14,46.3,37.7,31.7,23.0,15.1,-3.9,59,41,15,30.00,29.74,7,3,19,0.00
2013-11-15,43.0,35.4,27.5,28.1,15.9,-3.0,92,49,16,29.74,29.42,9,4,23,0.00
2013-11-16,34.9,28.7,23.0,25.5,19.3,10.1,91,69,43,29.60,29.31,21,7,45,0.00
2013-11-17,36.2,28.3,20.6,19.9,16.2,10.8,91,62,36,30.23,29.58,17,8,31,0.00
2013-11-18,48.8,35.7,30.6,17.3,11.9,3.9,55,39,18,30.33,30.09,12,4,25,0.00
2013-11-19,42.2,37.6,33.0,26.2,18.0,0.1,69,47,18,30.09,29.74,8,4,20,0.00
2013-11-20,41.7,35.1,28.1,25.5,21.2,18.0,83,57,40,29.92,29.77,7,3,16,0.00
2013-11-21,28.0,12.1,3.2,23.6,8.5,-0.3,89,85,80,30.79,29.92,5,0,10,0.00
2013-11-22,34.7,19.7,9.1,23.9,12.6,-0.8,89,76,24,30.91,30.79,0,0,0,0.01
2013-11-23,26.0,20.1,13.7,20.8,16.9,10.7,92,87,78,30.80,30.48,3,0,4,0.00
2013-11-24,41.4,31.9,20.4,32.3,23.8,3.3,91,74,28,30.48,30.04,4,1,7,0.15
2013-11-25,34.8,29.0,25.0,21.0,17.1,11.0,70,61,41,30.39,30.09,5,1,12,0.00
2013-11-26,39.7,31.7,26.7,17.1,13.0,8.8,63,46,35,30.49,30.33,7,3,14,0.00
2013-11-27,47.4,37.2,29.2,18.1,14.1,9.5,56,39,26,30.33,30.11,6,3,12,0.03
2013-11-28,49.5,33.8,26.6,22.4,16.5,11.9,66,50,30,30.20,30.12,2,1,3,0.01
2013-11-29,42.2,36.5,32.9,19.1,15.8,12.7,53,43,35,30.23,30.14,10,5,25,0.00
2013-11-30,39.7,34.2,31.0,16.6,13.4,7.9,52,42,32,30.26,30.17,10,6,21,0.00